TimeCST,TemperatureF,Dew PointF,Humidity,Sea Level PressureIn,VisibilityMPH,Wind Direction,Wind SpeedMPH,Gust SpeedMPH,PrecipitationIn,Events,Conditions,WindDirDegrees,DateUTC
12:52 AM,18.0,14.0,84,30.15,10.0,ESE,15.0,-,N/A,,Overcast,110,2013-03-07 06:52:00
1:52 AM,19.0,15.1,85,30.15,10.0,ESE,12.7,-,N/A,,Overcast,110,2013-03-07 07:52:00
2:52 AM,18.0,15.1,88,30.12,10.0,East,11.5,-,N/A,,Overcast,100,2013-03-07 08:52:00
3:11 AM,19.0,15.1,85,30.01,10.0,ESE,13.8,-,N/A,,Scattered Clouds,120,2013-03-07 09:11:00
3:52 AM,19.0,15.1,85,30.09,10.0,East,11.5,-,N/A,,Clear,100,2013-03-07 09:52:00
4:52 AM,19.0,15.1,85,30.08,10.0,East,13.8,-,N/A,,Clear,100,2013-03-07 10:52:00
5:52 AM,18.0,14.0,84,30.10,10.0,East,11.5,-,N/A,,Clear,90,2013-03-07 11:52:00
6:31 AM,16.0,12.9,88,30.01,10.0,East,10.4,-,N/A,,Mostly Cloudy,80,2013-03-07 12:31:00
6:52 AM,16.0,12.9,88,30.10,9.0,East,11.5,-,N/A,,Overcast,80,2013-03-07 12:52:00
7:23 AM,19.9,16.0,85,30.01,8.0,ESE,10.4,-,N/A,,Overcast,120,2013-03-07 13:23:00
7:52 AM,19.9,16.0,85,30.11,8.0,ESE,10.4,-,N/A,,Overcast,120,2013-03-07 13:52:00
8:52 AM,21.2,17.6,86,30.02,8.0,SE,16.1,-,N/A,,Overcast,130,2013-03-07 14:52:00
9:52 AM,21.9,19.0,89,30.12,8.0,SE,17.3,-,N/A,,Overcast,140,2013-03-07 15:52:00
10:52 AM,24.1,19.0,81,30.12,8.0,SSE,12.7,-,N/A,,Overcast,150,2013-03-07 16:52:00
11:52 AM,25.0,19.9,81,30.12,8.0,SSE,11.5,-,N/A,,Overcast,150,2013-03-07 17:52:00
12:52 PM,26.1,21.0,81,30.12,8.0,SSE,12.7,-,N/A,,Overcast,160,2013-03-07 18:52:00
1:52 PM,27.0,21.9,81,30.10,9.0,SSE,9.2,-,N/A,,Overcast,150,2013-03-07 19:52:00
2:52 PM,28.9,21.9,75,30.12,9.0,SW,5.8,-,N/A,,Overcast,230,2013-03-07 20:52:00
3:11 PM,28.9,21.9,75,30.05,9.0,SSW,4.6,-,N/A,,Overcast,200,2013-03-07 21:11:00
3:39 PM,28.9,23.0,78,30.06,10.0,SW,5.8,-,N/A,,Overcast,220,2013-03-07 21:39:00
3:52 PM,28.9,23.0,78,30.14,10.0,SW,5.8,-,N/A,,Overcast,220,2013-03-07 21:52:00
4:12 PM,28.9,23.0,78,30.06,10.0,WSW,6.9,-,N/A,,Overcast,240,2013-03-07 22:12:00
4:24 PM,28.9,23.0,78,30.06,10.0,West,4.6,-,N/A,,Overcast,270,2013-03-07 22:24:00
4:52 PM,28.9,23.0,78,30.14,10.0,WSW,3.5,-,N/A,,Overcast,250,2013-03-07 22:52:00
5:52 PM,28.9,23.0,78,30.16,10.0,West,4.6,-,N/A,,Overcast,260,2013-03-07 23:52:00
6:52 PM,30.0,23.0,75,30.17,10.0,Calm,Calm,-,N/A,,Overcast,0,2013-03-08 00:52:00
7:52 PM,28.0,23.0,81,30.17,10.0,South,4.6,-,N/A,,Overcast,170,2013-03-08 01:52:00
8:10 PM,28.0,23.0,81,30.10,10.0,South,3.5,-,N/A,,Scattered Clouds,170,2013-03-08 02:10:00
8:52 PM,25.0,21.9,88,30.19,9.0,Calm,Calm,-,N/A,,Mostly Cloudy,0,2013-03-08 02:52:00
9:52 PM,27.0,24.1,89,30.21,9.0,South,4.6,-,N/A,,Overcast,180,2013-03-08 03:52:00
10:52 PM,28.0,24.1,85,30.22,9.0,Calm,Calm,-,N/A,,Overcast,0,2013-03-08 04:52:00
11:52 PM,26.6,21.2,80,30.15,8.0,Calm,Calm,-,N/A,,Scattered Clouds,0,2013-03-08 05:52:00